Fort Lawn, SC

2:00 PM EST on February 12, 2016 (GMT -0500)
Lancaster County-McWhirter

Weather History for KLKR - December, 2012

Change the Weather History Date:

Wednesday, December 5, 2012

  Actual Average (KUZA) Record (KUZA)
Temperature  
Mean Temperature 60 °F -  
Max Temperature 71 °F 57 °F 73 °F (1956)
Min Temperature 50 °F 35 °F 21 °F (1969)
Degree Days  
Heating Degree Days 4    
Growing Degree Days 10 (Base 50)    
Moisture  
Dew Point 55 °F    
Average Humidity 89    
Maximum Humidity 100    
Minimum Humidity 57    
Precipitation  
Precipitation 0.00 in - - ()
Sea Level Pressure  
Sea Level Pressure 30.17 in    
Wind  
Wind Speed 2 mph (West)    
Max Wind Speed 13 mph    
Max Gust Speed 17 mph    
Visibility 8 miles    
Events Fog , Rain    
Averages and records for this station are not official NWS values.
T = Trace of Precipitation, MM = Missing Value Source: NWS Daily Summary

Daily Weather History Graph

Daily Weather History Graph

Search for Another Location

Airport or City:

Trip Planner

Search our weather history database for the weather conditions in past years. The results will help you decide how hot, cold, wet, or windy it might be!

Date:

Astronomy

Dec. 05, 2012 Rise Set
Actual Time 7:16 AM EST 5:12 PM EST
Civil Twilight 6:48 AM EST 5:40 PM EST
Nautical Twilight 6:17 AM EST 6:11 PM EST
Astronomical Twilight 5:46 AM EST 6:41 PM EST
Moon 11:48 PM EST (12/5) 11:50 AM EST (12/5)
Length of Visible Light 10h 51m
Length of Day
9h 56m
Waning Gibbous, 60% of the Moon is Illuminated
Dec 5
Waning Gibbous
Dec 6
Last Quarter
Dec 13
New
Dec 20
First Quarter
Dec 28
Full

Hourly Weather History & Observations

Time (EST) Temp. Dew Point Humidity Pressure Visibility Wind Dir Wind Speed Gust Speed Precip Events Conditions
12:15 AM 55.4 °F 55.4 °F 100% 30.21 in 10.0 mi Calm Calm - N/A   Clear
12:35 AM 55.4 °F 55.4 °F 100% 30.21 in 10.0 mi Calm Calm - N/A   Clear
12:55 AM 55.4 °F 55.4 °F 100% 30.20 in 10.0 mi Calm Calm - N/A   Clear
1:15 AM 55.4 °F 55.4 °F 100% 30.20 in 10.0 mi Calm Calm - N/A   Clear
1:35 AM 55.4 °F 55.4 °F 100% 30.20 in 9.0 mi Calm Calm - N/A   Clear
1:55 AM 55.4 °F 55.4 °F 100% 30.20 in 10.0 mi Calm Calm - N/A   Clear
2:15 AM 53.6 °F 53.6 °F 100% 30.20 in 10.0 mi Calm Calm - N/A   Clear
2:35 AM 55.4 °F 55.4 °F 100% 30.19 in 10.0 mi Calm Calm - N/A   Clear
2:55 AM 55.4 °F 55.4 °F 100% 30.19 in 8.0 mi SW 3.5 mph - N/A   Clear
3:15 AM 55.4 °F 55.4 °F 100% 30.18 in 7.0 mi Calm Calm - N/A   Clear
3:35 AM 55.4 °F 55.4 °F 100% 30.18 in 9.0 mi Calm Calm - N/A   Clear
3:55 AM 55.4 °F 55.4 °F 100% 30.18 in 3.0 mi Calm Calm - N/A   Clear
4:15 AM 53.6 °F 53.6 °F 100% 30.18 in 0.5 mi Calm Calm - N/A Fog Fog
4:35 AM 53.6 °F 53.6 °F 100% 30.17 in 1.5 mi Calm Calm - N/A   Clear
4:55 AM 53.6 °F 53.6 °F 100% 30.17 in 0.2 mi Calm Calm - N/A Fog Fog
5:15 AM 50.0 °F 50.0 °F 100% 30.17 in 5.0 mi Calm Calm - N/A   Partly Cloudy
5:35 AM 53.6 °F 53.6 °F 100% 30.17 in 0.8 mi Calm Calm - N/A   Mist
5:55 AM 51.8 °F 51.8 °F 100% 30.18 in 0.2 mi Calm Calm - N/A Fog Fog
6:15 AM 53.6 °F 53.6 °F 100% 30.18 in 2.5 mi SW 3.5 mph - N/A   Partly Cloudy
6:35 AM 53.6 °F 53.6 °F 100% 30.18 in 3.0 mi SW 3.5 mph - N/A   Mostly Cloudy
6:55 AM 55.4 °F 55.4 °F 100% 30.18 in 9.0 mi SW 3.5 mph - N/A   Partly Cloudy
7:15 AM 53.6 °F 53.6 °F 100% 30.19 in 5.0 mi Calm Calm - N/A   Clear
7:35 AM 53.6 °F 53.6 °F 100% 30.19 in 1.8 mi Calm Calm - N/A   Clear
7:55 AM 53.6 °F 53.6 °F 100% 30.19 in 7.0 mi Calm Calm - N/A   Clear
9:55 AM 60.8 °F 59.0 °F 94% 30.20 in 10.0 mi SW 5.8 mph - N/A   Clear
10:15 AM 64.4 °F 59.0 °F 83% 30.20 in 10.0 mi SSW 5.8 mph - N/A   Clear
10:35 AM 64.4 °F 59.0 °F 83% 30.20 in 10.0 mi SSW 3.5 mph - N/A   Clear
10:55 AM 66.2 °F 59.0 °F 78% 30.19 in 10.0 mi SSW 4.6 mph - N/A   Clear
11:15 AM 68.0 °F 57.2 °F 68% 30.18 in 10.0 mi SSW 5.8 mph - N/A   Clear
11:35 AM 71.6 °F 57.2 °F 60% 30.17 in 10.0 mi SW 6.9 mph - N/A   Clear
11:55 AM 71.6 °F 55.4 °F 57% 30.16 in 10.0 mi WSW 9.2 mph - N/A   Clear
12:15 PM 71.6 °F 55.4 °F 57% 30.15 in 10.0 mi SW 9.2 mph 17.3 mph N/A   Partly Cloudy
12:35 PM 71.6 °F 57.2 °F 60% 30.14 in 10.0 mi WSW 11.5 mph - N/A   Partly Cloudy
12:55 PM 71.6 °F 57.2 °F 60% 30.13 in 10.0 mi West 10.4 mph - N/A   Clear
1:15 PM 71.6 °F 55.4 °F 57% 30.13 in 10.0 mi WSW 10.4 mph 17.3 mph N/A   Scattered Clouds
1:35 PM 69.8 °F 57.2 °F 64% 30.13 in 10.0 mi West 12.7 mph - N/A   Mostly Cloudy
1:55 PM 68.0 °F 57.2 °F 68% 30.12 in 10.0 mi West 9.2 mph - N/A   Mostly Cloudy
2:15 PM 64.4 °F 64.4 °F 100% 30.12 in 1.8 mi Calm Calm - N/A Rain Light Rain
2:35 PM 62.6 °F 62.6 °F 100% 30.12 in 3.0 mi Calm Calm - N/A Rain Light Rain
2:55 PM 62.6 °F 62.6 °F 100% 30.12 in 10.0 mi Calm Calm - N/A   Mostly Cloudy
3:15 PM 64.4 °F 64.4 °F 100% 30.12 in 7.0 mi Calm Calm - N/A   Mostly Cloudy
3:35 PM 64.4 °F 64.4 °F 100% 30.12 in 10.0 mi NW 4.6 mph - N/A   Scattered Clouds
3:55 PM 64.4 °F 62.6 °F 94% 30.12 in 10.0 mi NW 4.6 mph - N/A   Clear
4:15 PM 64.4 °F 62.6 °F 94% 30.12 in 10.0 mi NNW 3.5 mph - N/A   Partly Cloudy
4:35 PM 64.4 °F 62.6 °F 94% 30.12 in 10.0 mi Calm Calm - N/A   Partly Cloudy
4:55 PM 60.8 °F 60.8 °F 100% 30.13 in 9.0 mi Calm Calm - N/A   Clear
5:15 PM 60.8 °F 60.8 °F 100% 30.13 in 5.0 mi Calm Calm - N/A   Clear
5:35 PM 59.0 °F 59.0 °F 100% 30.14 in 3.0 mi Calm Calm - N/A   Scattered Clouds
5:55 PM 59.0 °F 59.0 °F 100% 30.15 in 10.0 mi NNE 8.1 mph - N/A   Scattered Clouds
6:15 PM 60.8 °F 59.0 °F 94% 30.16 in 10.0 mi North 9.2 mph - N/A   Mostly Cloudy
6:35 PM 59.0 °F 57.2 °F 94% 30.17 in 10.0 mi NNE 9.2 mph - N/A   Mostly Cloudy
6:55 PM 57.2 °F 55.4 °F 94% 30.18 in 10.0 mi NNE 10.4 mph - N/A   Mostly Cloudy
7:15 PM 57.2 °F 55.4 °F 94% 30.18 in 10.0 mi NNE 8.1 mph - N/A   Mostly Cloudy
7:35 PM 57.2 °F 51.8 °F 82% 30.19 in 10.0 mi NNE 9.2 mph - N/A   Overcast
7:55 PM 57.2 °F 48.2 °F 72% 30.19 in 10.0 mi NNE 6.9 mph - N/A   Overcast
8:15 PM 55.4 °F 50.0 °F 82% 30.19 in 10.0 mi NE 4.6 mph - N/A   Overcast
8:35 PM 55.4 °F 48.2 °F 77% 30.19 in 10.0 mi ENE 4.6 mph - N/A   Mostly Cloudy
8:55 PM 55.4 °F 46.4 °F 72% 30.19 in 10.0 mi ENE 3.5 mph - N/A   Mostly Cloudy
9:15 PM 55.4 °F 44.6 °F 67% 30.19 in 10.0 mi Calm Calm - N/A   Partly Cloudy
9:55 PM 53.6 °F 44.6 °F 72% 30.19 in 10.0 mi Calm Calm - N/A   Clear
10:15 PM 53.6 °F 48.2 °F 82% 30.18 in 10.0 mi Calm Calm - N/A   Partly Cloudy
10:35 PM 53.6 °F 46.4 °F 77% 30.19 in 10.0 mi North - - N/A   Scattered Clouds
10:55 PM 53.6 °F 48.2 °F 82% 30.19 in 10.0 mi Calm Calm - N/A   Scattered Clouds
11:15 PM 53.6 °F 50.0 °F 88% 30.20 in 10.0 mi Calm Calm - N/A   Mostly Cloudy
11:35 PM 51.8 °F 50.0 °F 94% 30.20 in 10.0 mi Calm Calm - N/A   Scattered Clouds
11:55 PM 51.8 °F 51.8 °F 100% 30.20 in 10.0 mi Calm Calm - N/A   Scattered Clouds